Flag for Guernsey Weather past 2 weeks in St. Peter Port, Guernsey

50 °F

Partly cloudy.

Feels Like: 49 °F
Forecast: N/A
Wind: 3 mph from Southwest

Location: Guernsey Airport

Current Time: Nov 26, 2015 at 7:48:09 PM

Latest Report: Nov 26, 2015 at 7:20 PM

Visibility: N/A

Pressure: 30.18 "Hg

Humidity: 94%

Dew point: 48 °F

Location of St. Peter PortLocation

Historic Weather in St. Peter Port — Graph


St. Peter Port temperature yesterday

Maximum temperature yesterday: 55 °F (at 11:20 AM)
Minimum temperature yesterday: 52 °F (at 4:20 AM)
Average temperature yesterday: 53 °F

Past Weeks' High & Low Weather Summary

High59 °F (Nov 12, 5:20 PM)100% (Nov 12, 4:50 AM)30.42 "Hg (Nov 12, 4:50 AM)
Low41 °F (Nov 23, 3:50 AM)40% (Nov 21, 1:20 PM)29.71 "Hg (Nov 21, 6:20 AM)
Average53 °F81%30.05 "Hg
* Reported Nov 11 6:20 PM — Nov 26 6:50 PM, St. Peter Port, Weather by CustomWeather, © 2015

Note: Actual official high and low records may vary slightly from our data, if they occured in-between our weather recording intervals... More about our weather records


St. Peter Port weather history for previous 24 hours

Time TempWeatherWind HumidityBarometerVisibility
6:50 PM
Thu, Nov 26
50 °FPassing clouds.2 mph94%30.18 "HgN/A
6:20 PM50 °FDrizzle. Fog.2 mph94%30.18 "Hg3 mi
5:50 PM50 °FPassing clouds.2 mph94%30.18 "Hg2 mi
5:20 PM50 °FPartly cloudy.No wind94%30.18 "Hg4 mi
4:50 PM50 °FLight rain. Passing clouds.2 mph94%30.18 "Hg5 mi
4:20 PM52 °FSprinkles. Partly cloudy.2 mph88%30.18 "HgN/A
3:50 PM52 °FPartly sunny.3 mph88%30.18 "HgN/A
3:20 PM52 °FSprinkles. Broken clouds.5 mph88%30.18 "HgN/A
2:50 PM52 °FBroken clouds.6 mph82%30.15 "HgN/A
2:20 PM52 °FBroken clouds.7 mph82%30.18 "HgN/A
1:50 PM52 °FScattered showers. Partly sunny.7 mph82%30.18 "HgN/A
1:20 PM54 °FSprinkles. Broken clouds.8 mph82%30.18 "HgN/A
12:50 PM54 °FPartly sunny.8 mph82%30.18 "HgN/A
12:20 PM54 °FPartly sunny.8 mph77%30.18 "HgN/A
11:50 AM54 °FScattered clouds.8 mph72%30.18 "HgN/A
11:20 AM54 °FPartly sunny.9 mph77%30.18 "HgN/A
10:50 AM54 °FScattered clouds.8 mph77%30.18 "HgN/A
10:20 AM52 °FPartly sunny.10 mph77%30.18 "HgN/A
9:50 AM52 °FPartly sunny.12 mph82%30.18 "HgN/A
9:20 AM52 °FDrizzle. Partly sunny.10 mph82%30.15 "HgN/A
8:50 AM52 °FDrizzle. Partly sunny.12 mph82%30.15 "HgN/A
8:20 AM52 °FPartly sunny.14 mph77%30.15 "HgN/A
7:50 AM52 °FPartly sunny.14 mph77%30.15 "HgN/A
7:20 AM52 °FPassing clouds.13 mph77%30.15 "HgN/A
6:20 AM52 °FPassing clouds.13 mph72%30.12 "HgN/A
5:50 AM52 °FPartly cloudy.13 mph72%30.12 "HgN/A
5:20 AM52 °FPartly cloudy.14 mph72%30.09 "HgN/A
4:50 AM52 °FPartly cloudy.14 mph72%30.09 "HgN/A
4:20 AM52 °FPartly cloudy.14 mph72%30.12 "HgN/A
3:50 AM52 °FPartly cloudy.15 mph77%30.12 "HgN/A
8:50 PM
Wed, Nov 25
54 °FPassing clouds.18 mph77%30.07 "HgN/A
8:20 PM54 °FPassing clouds.18 mph77%30.07 "HgN/A
7:50 PM54 °FPassing clouds.18 mph82%30.07 "HgN/A
7:20 PM52 °FScattered showers. Partly cloudy.22 mph82%30.07 "HgN/A
Weather by CustomWeather, © 2015

See weather overviewHow to use our weather pages